Temp
1 1 1 1 1 1 1 1 1 0 0 0 -0 -0 -1 -2 -3 -3 -5 -7 -8 -8 -9 -11 -11 -11 -12 -12 -12 -12 -12 -12 -12 -13 -12 -12 -12 -12 -12 -11 -11 -11 -11 -11 -11 -11 -11 -10 -10 -10 -11 -11 -11 -11
1 1 1 1 1 1 0 1 0 0 -0 -0 -0 -0 -1 -2 -3 -4 -5 -7 -8 -9 -9 -10 -11 -12 -12 -12 -12 -12 -12 -13 -13 -13 -13 -13 -13 -13 -13 -13 -12 -11 -12 -12 -12 -11 -11 -11 -11 -12 -11 -11 -12 -12
1 0 0 0 0 0 0 0 -0 -0 -0 -0 -0 -1 -1 -2 -4 -4 -6 -7 -8 -9 -9 -10 -11 -12 -12 -12 -12 -13 -13 -13 -13 -13 -13 -14 -13 -13 -13 -13 -13 -13 -12 -12 -12 -11 -12 -12 -12 -12 -12 -12 -12 -12
0 0 0 0 -0 -0 -0 -0 -0 -0 -1 -1 -1 -1 -1 -3 -3 -4 -6 -7 -8 -10 -10 -10 -11 -12 -11 -12 -12 -12 -13 -13 -13 -13 -14 -13 -13 -13 -13 -13 -13 -13 -13 -12 -13 -12 -12 -13 -13 -13 -13 -12 -12 -13
0 -0 -0 -0 -0 -0 -0 -1 -1 -1 -1 -1 -1 -2 -2 -3 -3 -4 -6 -7 -9 -10 -11 -10 -11 -11 -11 -11 -12 -12 -13 -13 -13 -14 -14 -14 -14 -14 -13 -13 -14 -14 -14 -14 -14 -14 -13 -13 -13 -13 -13 -12 -12 -12
-0 -0 -0 -1 -1 -1 -1 -1 -1 -1 -1 -1 -1 -2 -2 -3 -4 -4 -6 -7 -9 -10 -11 -10 -11 -11 -11 -12 -12 -12 -13 -13 -13 -14 -14 -14 -14 -14 -13 -14 -14 -14 -14 -14 -14 -14 -14 -14 -14 -13 -13 -13 -13 -13
-1 -1 -1 -1 -1 -1 -1 -1 -1 -1 -1 -1 -2 -2 -3 -3 -4 -5 -6 -8 -9 -10 -10 -10 -11 -11 -11 -12 -12 -12 -12 -13 -13 -14 -14 -15 -15 -14 -14 -14 -15 -15 -15 -15 -15 -15 -15 -15 -15 -15 -15 -14 -14 -13
-1 -1 -1 -1 -1 -1 -2 -2 -2 -2 -2 -2 -2 -2 -3 -3 -4 -5 -6 -8 -9 -9 -10 -11 -11 -11 -12 -12 -12 -12 -12 -13 -14 -14 -15 -15 -15 -15 -15 -15 -15 -15 -16 -16 -16 -16 -16 -16 -16 -16 -15 -15 -15 -15
-2 -2 -2 -2 -2 -2 -2 -2 -2 -2 -2 -2 -2 -2 -3 -4 -5 -6 -8 -9 -10 -10 -11 -12 -12 -12 -12 -12 -12 -12 -12 -14 -14 -15 -15 -15 -15 -15 -15 -16 -16 -16 -17 -17 -17 -17 -17 -17 -17 -17 -16 -16 -16 -16
-2 -2 -2 -2 -2 -2 -2 -2 -2 -2 -2 -3 -3 -3 -4 -5 -7 -9 -10 -10 -10 -11 -12 -12 -12 -13 -13 -13 -13 -13 -14 -14 -15 -15 -15 -15 -15 -15 -16 -16 -16 -16 -17 -17 -17 -18 -17 -17 -17 -16 -16 -16 -16 -16
-3 -3 -3 -3 -3 -3 -2 -2 -3 -3 -3 -3 -4 -4 -5 -6 -8 -9 -10 -10 -11 -12 -13 -13 -13 -13 -13 -13 -13 -14 -14 -14 -15 -15 -15 -15 -15 -15 -16 -16 -16 -16 -16 -17 -17 -17 -17 -17 -17 -17 -17 -17 -17 -16
-3 -3 -3 -3 -3 -3 -3 -3 -3 -3 -3 -4 -4 -4 -6 -8 -9 -10 -10 -11 -12 -12 -13 -13 -14 -14 -14 -14 -14 -14 -14 -15 -15 -16 -16 -16 -15 -16 -16 -16 -16 -16 -16 -17 -17 -17 -17 -17 -17 -17 -17 -17 -17 -17
-4 -4 -4 -4 -4 -4 -3 -3 -3 -3 -4 -4 -5 -6 -7 -8 -9 -10 -10 -12 -12 -13 -14 -14 -14 -14 -14 -15 -15 -15 -15 -15 -16 -16 -16 -15 -15 -16 -16 -16 -17 -17 -17 -17 -17 -17 -17 -17 -17 -17 -17 -17 -17 -17
-4 -4 -4 -4 -4 -4 -4 -4 -4 -4 -5 -5 -6 -7 -7 -8 -9 -9 -11 -12 -13 -14 -14 -15 -14 -15 -14 -15 -15 -15 -15 -15 -16 -16 -16 -15 -16 -17 -18 -18 -18 -18 -18 -18 -18 -18 -18 -18 -18 -18 -18 -18 -18 -17
-5 -5 -5 -4 -5 -4 -5 -4 -5 -5 -6 -6 -6 -7 -8 -8 -10 -11 -12 -13 -14 -14 -14 -15 -15 -15 -15 -16 -16 -15 -15 -16 -16 -16 -16 -17 -17 -18 -18 -18 -18 -18 -19 -19 -19 -19 -19 -19 -19 -19 -19 -19 -19 -18
-6 -6 -5 -5 -5 -5 -5 -5 -6 -6 -6 -6 -7 -7 -8 -10 -11 -12 -13 -13 -14 -14 -15 -15 -15 -15 -16 -16 -16 -16 -16 -15 -15 -17 -18 -18 -18 -19 -19 -19 -20 -20 -20 -20 -21 -21 -20 -20 -20 -20 -20 -20 -20 -20
-8 -6 -6 -6 -6 -6 -6 -6 -6 -6 -6 -7 -7 -9 -10 -11 -11 -12 -13 -14 -14 -15 -15 -15 -15 -15 -15 -16 -17 -16 -16 -17 -17 -18 -19 -19 -20 -21 -21 -21 -22 -22 -22 -22 -22 -22 -22 -22 -22 -22 -22 -21 -21 -21
-7 -7 -7 -7 -7 -7 -7 -7 -7 -7 -7 -8 -9 -10 -11 -11 -12 -13 -14 -14 -14 -15 -15 -16 -16 -16 -16 -16 -17 -17 -17 -18 -19 -20 -20 -21 -22 -22 -23 -23 -23 -23 -23 -23 -23 -24 -24 -24 -23 -23 -23 -23 -23 -23
-8 -7 -7 -7 -7 -8 -8 -7 -7 -8 -8 -9 -10 -11 -11 -12 -13 -13 -14 -14 -14 -15 -15 -16 -16 -16 -16 -17 -18 -18 -19 -20 -21 -22 -22 -23 -23 -24 -24 -24 -24 -24 -24 -24 -24 -24 -25 -25 -24 -24 -24 -24 -24 -24
-8 -8 -8 -8 -8 -8 -9 -8 -8 -9 -9 -10 -10 -11 -12 -12 -13 -14 -14 -14 -15 -15 -16 -16 -16 -17 -18 -18 -19 -20 -20 -21 -22 -23 -24 -24 -25 -25 -25 -25 -25 -25 -25 -25 -25 -25 -25 -25 -25 -25 -25 -25 -25 -25
-8 -8 -8 -8 -9 -9 -9 -9 -9 -10 -10 -11 -11 -12 -12 -13 -13 -14 -14 -15 -15 -16 -16 -17 -17 -18 -19 -19 -20 -21 -22 -23 -24 -24 -25 -26 -26 -26 -25 -25 -25 -25 -25 -25 -25 -26 -26 -25 -26 -26 -25 -25 -25 -25
-9 -9 -9 -9 -9 -9 -10 -9 -10 -10 -11 -11 -12 -12 -13 -13 -14 -14 -15 -15 -15 -16 -17 -18 -18 -19 -20 -20 -21 -22 -23 -24 -25 -26 -26 -26 -26 -26 -26 -26 -26 -26 -26 -26 -26 -26 -26 -27 -27 -27 -27 -27 -26 -26
-9 -10 -9 -9 -10 -10 -10 -10 -11 -11 -12 -12 -13 -13 -14 -14 -15 -15 -16 -16 -16 -17 -18 -19 -20 -20 -21 -22 -23 -24 -25 -26 -26 -26 -26 -26 -26 -26 -26 -26 -27 -27 -27 -27 -28 -28 -28 -28 -28 -28 -28 -27 -27 -28
-10 -10 -10 -10 -10 -11 -10 -11 -11 -12 -12 -13 -14 -14 -15 -15 -15 -16 -16 -17 -18 -19 -20 -20 -20 -21 -22 -23 -24 -25 -26 -26 -27 -27 -26 -27 -27 -27 -27 -28 -28 -28 -28 -28 -29 -29 -29 -29 -29 -29 -29 -28 -28 -28
-11 -10 -10 -10 -11 -11 -12 -12 -12 -13 -13 -14 -15 -15 -15 -16 -17 -17 -17 -18 -19 -20 -20 -20 -21 -23 -24 -24 -25 -26 -26 -27 -27 -27 -27 -27 -28 -28 -28 -28 -28 -28 -29 -29 -29 -29 -29 -29 -29 -29 -29 -29 -29 -29
-11 -11 -11 -11 -11 -11 -12 -13 -13 -14 -14 -15 -16 -16 -16 -17 -18 -18 -18 -19 -20 -20 -21 -22 -23 -24 -24 -25 -26 -27 -27 -27 -27 -28 -28 -28 -28 -28 -28 -29 -29 -29 -29 -29 -30 -30 -30 -30 -30 -30 -30 -30 -30 -29
-12 -11 -11 -11 -12 -12 -13 -14 -14 -15 -16 -16 -16 -17 -18 -18 -18 -19 -20 -20 -21 -21 -22 -23 -24 -25 -25 -26 -27 -27 -27 -27 -27 -28 -28 -28 -28 -28 -28 -29 -29 -29 -29 -29 -29 -29 -29 -30 -30 -30 -29 -29 -29 -29
-11 -11 -11 -12 -13 -14 -14 -15 -15 -16 -16 -16 -17 -18 -18 -19 -19 -20 -20 -21 -22 -22 -23 -24 -25 -25 -26 -27 -27 -28 -27 -27 -27 -28 -28 -28 -28 -28 -28 -29 -29 -29 -29 -29 -29 -29 -29 -29 -29 -29 -29 -29 -29 -29
-12 -12 -13 -14 -14 -15 -15 -15 -16 -16 -17 -17 -18 -19 -20 -20 -21 -21 -21 -22 -23 -23 -24 -25 -25 -26 -27 -27 -28 -27 -27 -27 -27 -27 -28 -28 -28 -28 -28 -28 -29 -29 -29 -29 -30 -30 -30 -30 -30 -30 -29 -29 -29 -29
-13 -14 -14 -14 -15 -15 -16 -16 -17 -17 -18 -18 -19 -20 -20 -21 -21 -22 -22 -23 -24 -24 -25 -25 -26 -27 -27 -27 -27 -28 -27 -27 -27 -27 -27 -28 -28 -28 -28 -28 -28 -29 -29 -29 -29 -29 -30 -30 -30 -30 -30 -30 -30 -29
-14 -14 -14 -15 -15 -16 -17 -17 -18 -18 -19 -19 -20 -21 -21 -22 -22 -23 -23 -24 -25 -25 -26 -26 -26 -26 -27 -27 -27 -27 -27 -27 -27 -27 -27 -27 -27 -27 -27 -28 -28 -28 -28 -28 -28 -29 -29 -29 -29 -29 -29 -30 -30 -29
-15 -15 -15 -15 -16 -17 -17 -18 -18 -19 -20 -20 -21 -21 -22 -22 -23 -24 -24 -25 -25 -26 -26 -26 -26 -26 -26 -27 -27 -27 -27 -27 -27 -27 -27 -27 -27 -27 -27 -27 -27 -27 -27 -27 -28 -28 -28 -28 -28 -28 -29 -29 -29 -29
-15 -15 -16 -17 -17 -17 -18 -19 -20 -20 -21 -21 -21 -22 -22 -23 -24 -24 -25 -25 -26 -26 -26 -26 -26 -26 -26 -26 -27 -27 -26 -26 -26 -26 -26 -27 -27 -27 -27 -27 -27 -27 -27 -27 -27 -27 -27 -28 -28 -28 -28 -28 -29 -29
Height
3100 3099 3097 3096 3095 3093 3091 3088 3084 3081 3077 3072 3066 3061 3054 3048 3041 3036 3032 3023 3019 3013 3011 3007 3004 3002 2998 2997 2993 2990 2987 2982 2980 2979 2976 2974 2971 2968 2965 2962 2960 2958 2955 2952 2949 2946 2945 2945 2944 2945 2943 2940 2938 2935
3095 3094 3093 3093 3091 3090 3087 3084 3080 3077 3073 3068 3063 3057 3050 3044 3038 3031 3025 3018 3013 3009 3008 3003 3001 2999 2998 2996 2992 2989 2987 2983 2981 2979 2977 2973 2971 2968 2965 2962 2960 2958 2956 2954 2955 2947 2944 2942 2942 2940 2939 2937 2935 2933
3090 3089 3089 3088 3087 3086 3084 3080 3076 3073 3069 3064 3059 3053 3046 3041 3033 3027 3021 3014 3009 3004 3002 3002 2999 2998 2994 2992 2990 2988 2984 2981 2979 2977 2974 2971 2968 2965 2962 2960 2957 2955 2952 2951 2949 2945 2942 2941 2940 2939 2936 2934 2931 2927
3084 3084 3084 3082 3082 3081 3079 3075 3072 3068 3065 3060 3054 3048 3042 3036 3029 3023 3017 3011 3006 3002 2999 2998 2995 2991 2990 2989 2986 2984 2982 2979 2976 2974 2970 2967 2964 2961 2958 2956 2954 2952 2950 2947 2944 2943 2940 2939 2936 2935 2933 2930 2927 2923
3078 3079 3078 3077 3077 3076 3074 3071 3068 3063 3060 3055 3050 3043 3037 3031 3024 3017 3011 3007 3002 3003 2998 2995 2993 2992 2989 2987 2985 2983 2980 2976 2972 2969 2966 2962 2959 2957 2953 2951 2948 2946 2944 2943 2941 2939 2936 2935 2931 2929 2927 2925 2922 2919
3072 3073 3072 3072 3072 3071 3069 3066 3062 3059 3055 3050 3045 3039 3033 3025 3018 3012 3007 3004 3000 2997 2995 2994 2993 2991 2989 2986 2984 2980 2976 2972 2968 2963 2961 2959 2957 2957 2951 2948 2946 2944 2942 2940 2939 2936 2933 2930 2927 2924 2921 2919 2916 2913
3066 3066 3067 3067 3067 3065 3063 3060 3057 3054 3050 3045 3039 3033 3027 3020 3014 3009 3006 3001 2998 2996 2994 2993 2991 2991 2987 2984 2979 2977 2972 2968 2963 2961 2959 2958 2955 2954 2949 2947 2945 2942 2940 2937 2935 2932 2930 2926 2923 2920 2916 2913 2911 2908
3059 3059 3060 3061 3061 3059 3057 3055 3053 3048 3043 3038 3033 3027 3021 3014 3009 3004 2999 2997 2995 2995 2993 2991 2990 2988 2985 2980 2976 2971 2967 2964 2960 2959 2957 2955 2953 2950 2946 2944 2942 2939 2936 2934 2931 2929 2926 2922 2919 2915 2912 2910 2907 2904
3052 3053 3054 3055 3054 3053 3052 3050 3047 3043 3038 3032 3027 3021 3015 3010 3004 3001 2996 2994 2993 2995 2990 2989 2988 2986 2982 2978 2973 2969 2964 2961 2959 2957 2955 2954 2950 2948 2945 2942 2940 2937 2935 2932 2930 2927 2924 2921 2918 2915 2912 2908 2905 2902
3045 3047 3048 3048 3047 3047 3046 3044 3041 3037 3033 3026 3021 3016 3009 3005 2999 2998 2994 2994 2992 2991 2989 2989 2986 2983 2981 2975 2970 2967 2963 2961 2957 2956 2953 2950 2947 2945 2943 2941 2938 2936 2934 2932 2929 2927 2925 2922 2918 2915 2912 2908 2905 2902
3038 3040 3041 3041 3041 3041 3039 3038 3035 3031 3026 3021 3015 3010 3005 2999 2996 2994 2993 2993 2991 2989 2987 2985 2983 2981 2978 2973 2968 2966 2963 2960 2957 2955 2952 2948 2944 2943 2941 2939 2937 2936 2934 2931 2929 2926 2923 2920 2917 2915 2911 2908 2905 2902
3032 3033 3034 3035 3035 3034 3033 3031 3027 3024 3019 3015 3011 3003 2998 2995 2993 2994 2992 2991 2989 2987 2984 2981 2978 2974 2972 2969 2966 2963 2961 2958 2954 2952 2950 2944 2941 2940 2939 2937 2935 2934 2932 2930 2927 2925 2922 2919 2916 2913 2910 2906 2904 2901
3025 3026 3028 3029 3028 3028 3026 3024 3020 3016 3013 3008 3004 2998 2995 2993 2992 2989 2988 2987 2987 2984 2981 2979 2976 2973 2967 2965 2963 2962 2958 2955 2952 2949 2945 2941 2939 2938 2936 2934 2932 2930 2929 2926 2924 2922 2919 2916 2914 2911 2907 2904 2902 2899
3018 3020 3021 3021 3022 3021 3020 3017 3014 3010 3007 3003 2999 2995 2993 2989 2987 2986 2984 2983 2982 2979 2976 2973 2970 2968 2963 2960 2960 2958 2955 2952 2948 2944 2941 2939 2937 2935 2932 2930 2928 2926 2924 2922 2920 2917 2915 2913 2910 2907 2904 2902 2899 2896
3011 3013 3014 3015 3015 3014 3012 3010 3007 3005 3002 2999 2996 2990 2987 2986 2984 2981 2980 2979 2976 2974 2971 2969 2966 2964 2961 2959 2956 2955 2953 2947 2943 2939 2938 2936 2935 2933 2930 2928 2925 2922 2919 2917 2915 2912 2909 2907 2905 2902 2900 2897 2895 2892
3004 3007 3008 3008 3007 3006 3005 3003 3001 2998 2995 2992 2988 2985 2984 2981 2980 2977 2975 2974 2972 2970 2968 2966 2963 2959 2958 2957 2953 2950 2947 2943 2939 2937 2935 2933 2930 2928 2925 2922 2918 2915 2912 2910 2908 2906 2903 2901 2899 2896 2894 2892 2890 2888
2997 3000 3000 3001 3000 2999 2998 2997 2994 2990 2987 2985 2982 2980 2977 2975 2974 2972 2970 2969 2968 2967 2964 2962 2960 2956 2953 2950 2946 2944 2941 2940 2937 2934 2931 2927 2924 2921 2918 2915 2912 2909 2905 2903 2900 2898 2896 2894 2892 2890 2888 2886 2884 2882
2992 2993 2994 2994 2994 2993 2991 2990 2987 2984 2980 2979 2977 2975 2972 2970 2968 2968 2967 2965 2964 2960 2958 2957 2954 2950 2948 2943 2941 2939 2937 2935 2932 2928 2925 2921 2918 2915 2912 2909 2906 2903 2900 2897 2895 2892 2890 2888 2886 2883 2881 2879 2878 2876
2986 2987 2987 2988 2987 2987 2985 2982 2981 2977 2974 2972 2970 2969 2968 2966 2965 2963 2961 2959 2957 2954 2951 2947 2945 2941 2940 2939 2937 2934 2931 2928 2925 2922 2919 2916 2912 2910 2906 2903 2900 2897 2894 2892 2889 2887 2885 2882 2880 2878 2876 2874 2872 2870
2979 2981 2982 2982 2981 2981 2979 2976 2974 2970 2966 2967 2965 2964 2963 2961 2959 2958 2956 2954 2952 2948 2945 2942 2939 2936 2934 2933 2931 2927 2925 2922 2920 2917 2914 2910 2908 2905 2902 2899 2896 2893 2890 2886 2884 2882 2880 2877 2875 2872 2870 2868 2866 2864
2973 2974 2975 2976 2975 2974 2972 2968 2965 2963 2961 2960 2959 2959 2958 2956 2954 2952 2950 2948 2945 2942 2939 2937 2933 2931 2928 2927 2925 2922 2919 2917 2915 2913 2910 2908 2905 2901 2897 2894 2890 2887 2884 2881 2878 2875 2872 2870 2868 2866 2864 2861 2859 2857
2967 2968 2967 2967 2967 2965 2962 2960 2959 2957 2957 2956 2955 2954 2952 2951 2949 2947 2944 2941 2938 2936 2934 2931 2928 2926 2924 2922 2920 2917 2915 2913 2911 2908 2905 2902 2899 2895 2891 2887 2883 2879 2876 2873 2870 2868 2865 2862 2860 2859 2856 2854 2852 2849
2962 2962 2960 2960 2959 2956 2954 2952 2953 2952 2952 2950 2950 2949 2947 2945 2943 2941 2939 2936 2933 2930 2927 2925 2924 2922 2919 2917 2915 2913 2911 2909 2906 2904 2901 2897 2892 2888 2884 2880 2876 2873 2869 2866 2864 2861 2858 2856 2853 2851 2848 2846 2844 2842
2954 2954 2953 2951 2948 2947 2947 2947 2946 2947 2946 2945 2945 2943 2941 2939 2936 2933 2931 2929 2927 2925 2923 2922 2920 2917 2915 2913 2911 2909 2907 2905 2902 2898 2894 2890 2885 2881 2877 2873 2870 2866 2864 2860 2857 2854 2851 2848 2846 2843 2840 2838 2836 2833
2951 2949 2947 2944 2943 2942 2941 2941 2942 2942 2941 2940 2940 2939 2937 2934 2931 2928 2925 2922 2921 2920 2919 2918 2916 2913 2911 2908 2906 2905 2904 2901 2898 2893 2888 2884 2880 2876 2872 2868 2864 2862 2858 2855 2851 2848 2845 2842 2839 2836 2833 2830 2828 2826
2943 2940 2939 2936 2936 2937 2936 2936 2936 2936 2935 2935 2934 2932 2931 2928 2926 2923 2920 2919 2918 2917 2915 2913 2911 2910 2907 2905 2903 2902 2900 2896 2891 2887 2883 2879 2875 2872 2868 2864 2860 2857 2853 2849 2846 2843 2840 2836 2834 2831 2828 2825 2822 2819
2934 2933 2932 2932 2932 2933 2932 2932 2932 2931 2930 2929 2927 2926 2925 2924 2921 2919 2918 2917 2915 2912 2911 2909 2907 2906 2903 2901 2900 2897 2894 2889 2886 2883 2879 2875 2871 2866 2863 2859 2855 2851 2847 2844 2840 2837 2833 2831 2828 2825 2822 2820 2817 2814
2926 2925 2927 2928 2928 2928 2928 2928 2928 2927 2926 2924 2923 2922 2922 2920 2919 2916 2914 2913 2911 2909 2907 2905 2903 2902 2900 2898 2895 2892 2888 2885 2882 2878 2874 2869 2865 2862 2858 2854 2850 2845 2841 2838 2834 2830 2827 2824 2821 2818 2815 2812 2810 2807
2921 2922 2923 2923 2923 2923 2923 2923 2923 2922 2921 2920 2918 2917 2916 2915 2914 2911 2910 2909 2907 2906 2904 2902 2900 2898 2896 2893 2890 2886 2884 2881 2878 2875 2871 2866 2862 2858 2853 2849 2845 2841 2837 2834 2830 2825 2820 2817 2813 2809 2805 2803 2801 2798
2916 2916 2916 2917 2918 2918 2919 2919 2918 2917 2915 2914 2913 2912 2912 2910 2909 2907 2906 2905 2904 2902 2901 2899 2896 2894 2891 2889 2888 2884 2880 2877 2874 2871 2867 2863 2859 2856 2852 2847 2843 2839 2834 2830 2826 2823 2818 2814 2810 2806 2803 2799 2796 2793
2910 2910 2911 2912 2912 2913 2913 2913 2912 2911 2910 2909 2908 2908 2907 2905 2904 2903 2902 2902 2900 2899 2897 2895 2892 2890 2888 2886 2884 2882 2879 2876 2872 2868 2865 2862 2858 2854 2851 2847 2843 2838 2833 2829 2824 2819 2815 2811 2806 2803 2799 2796 2792 2789
2906 2907 2908 2907 2907 2908 2908 2907 2907 2906 2905 2905 2904 2903 2902 2901 2901 2900 2900 2898 2897 2895 2893 2891 2889 2887 2885 2883 2881 2879 2877 2874 2871 2868 2864 2861 2857 2854 2851 2846 2842 2837 2832 2827 2822 2818 2813 2809 2804 2801 2797 2794 2790 2787
2902 2903 2902 2902 2902 2902 2903 2903 2901 2901 2901 2901 2900 2898 2898 2898 2898 2898 2896 2895 2894 2891 2890 2888 2887 2885 2884 2882 2880 2878 2875 2872 2870 2867 2864 2860 2856 2853 2849 2845 2841 2836 2832 2827 2822 2818 2813 2809 2804 2800 2796 2792 2789 2785
Wind_Speed
17 16 15 15 15 14 15 17 19 23 26 29 31 33 34 35 36 37 32 32 31 31 23 21 18 18 14 18 22 22 28 18 17 16 8 11 12 16 21 28 21 11 10 6 8 4 4 4 19 11 10 11 17 23
18 16 15 15 14 14 15 18 20 23 26 29 31 33 34 35 36 37 34 34 32 27 25 15 17 16 20 14 20 21 22 20 14 15 21 25 20 17 19 14 18 8 9 18 13 7 17 15 16 7 11 18 22 23
18 17 16 15 14 15 16 18 21 23 26 29 31 33 34 35 34 37 34 33 30 29 23 13 16 22 16 15 17 19 19 19 21 18 22 21 23 16 21 21 19 18 17 13 12 16 10 17 18 22 22 24 24 26
19 18 17 15 15 16 17 18 21 23 26 29 31 33 35 35 36 36 33 29 24 20 19 20 20 15 8 14 12 18 18 17 16 17 20 23 24 18 21 23 25 23 23 21 17 19 20 19 21 22 23 24 25 26
20 19 17 15 16 16 17 19 21 24 27 28 31 33 35 34 36 36 30 23 19 16 18 18 9 9 9 12 16 17 20 20 23 25 24 23 21 15 17 17 21 19 20 18 17 19 22 20 22 23 23 24 27 28
21 20 17 16 17 17 17 19 22 24 26 29 31 32 34 34 34 31 26 21 18 15 15 11 5 10 13 14 17 20 21 24 24 23 18 9 12 13 11 11 11 14 15 16 15 18 21 22 24 25 26 26 25 27
22 20 18 17 18 17 17 20 22 25 27 29 30 32 32 33 30 26 21 17 12 10 10 7 4 12 14 15 21 21 23 24 18 12 5 9 14 16 14 12 14 14 14 14 16 17 19 21 21 22 24 25 25 25
22 20 19 19 18 17 18 20 22 25 27 29 31 32 33 32 27 24 15 11 8 7 5 4 7 16 14 23 26 25 26 22 14 9 10 12 15 14 5 9 14 15 15 16 16 16 15 15 16 18 18 17 17 17
23 21 21 20 18 18 19 21 23 25 26 28 30 32 32 27 24 17 7 5 6 5 3 4 14 14 22 25 26 26 27 17 11 11 11 12 13 5 11 12 11 10 10 11 11 12 13 14 15 15 15 16 15 15
23 22 22 20 19 19 20 21 23 24 26 28 29 31 28 26 18 8 6 5 5 4 2 9 17 21 25 26 27 26 14 9 8 9 11 8 11 9 10 10 9 8 9 9 10 10 11 12 13 13 15 16 16 16
23 22 22 20 19 20 20 22 23 24 25 27 29 29 28 19 9 5 4 5 5 5 5 15 22 24 25 27 26 13 10 8 5 5 6 5 7 8 9 8 8 9 10 10 11 11 12 13 13 14 14 15 15 16
22 21 21 20 19 20 20 21 23 24 25 27 28 28 18 7 3 4 3 5 5 4 13 20 23 22 24 24 18 10 10 6 6 7 6 6 11 10 9 10 10 11 11 12 13 13 14 15 15 16 15 16 16 16
21 20 20 19 18 20 19 21 22 23 25 28 26 13 7 3 4 3 4 8 9 16 19 19 17 22 20 16 9 9 5 7 8 5 5 10 12 13 13 13 14 15 15 16 16 16 16 16 16 16 16 17 17 17
19 20 19 17 19 19 19 20 21 23 24 25 16 11 5 4 6 10 15 15 16 17 18 17 19 20 21 14 5 6 8 7 5 5 8 14 16 17 17 18 18 19 20 20 20 20 20 20 19 19 18 18 18 18
19 18 16 20 19 18 19 20 21 22 23 18 10 6 7 11 17 17 17 17 18 18 18 20 19 15 12 6 5 6 5 6 6 8 13 17 20 21 23 25 25 25 25 25 24 24 24 23 23 22 22 21 21 21
16 15 21 20 19 18 19 20 21 22 23 13 8 9 16 16 16 16 17 17 16 17 17 19 12 7 5 5 6 8 7 9 15 18 22 24 25 26 26 26 26 25 24 24 24 24 24 24 24 25 25 24 23 23
15 21 20 19 18 20 20 21 22 22 13 8 14 17 16 15 15 16 16 16 16 18 18 13 6 5 6 8 7 9 13 18 22 27 29 29 28 27 26 25 25 25 24 24 24 23 23 23 23 24 24 24 23 23
19 19 19 19 19 20 21 22 20 16 15 17 18 17 15 15 16 16 17 18 20 20 18 13 14 16 10 14 18 21 24 28 30 30 28 26 25 24 23 23 22 22 23 22 22 21 21 22 22 22 22 22 22 22
19 19 19 18 18 19 20 23 16 13 17 18 17 15 15 16 16 17 19 21 21 20 20 16 9 13 16 20 23 26 28 28 26 24 23 22 21 21 19 20 20 20 21 21 20 20 20 20 20 20 20 20 20 20
18 18 18 17 17 19 16 14 20 19 16 14 15 15 15 16 18 19 19 20 21 20 19 15 17 19 21 24 23 22 22 21 20 19 19 20 19 19 20 20 21 21 21 22 22 21 20 21 21 21 21 21 21 22
16 17 17 18 18 18 18 17 17 14 15 15 14 13 16 18 19 20 19 20 20 19 18 18 20 19 17 18 19 19 18 17 17 17 16 16 18 21 22 24 25 25 25 24 25 25 24 24 23 23 23 24 24 24
16 17 19 20 21 21 23 21 17 14 14 16 17 16 18 21 21 19 21 22 20 15 18 20 16 14 17 17 17 17 16 16 17 18 21 23 24 25 27 27 26 26 25 25 25 25 24 24 24 23 24 24 25 26
16 18 20 22 22 15 15 15 14 14 13 14 15 16 18 20 21 22 17 17 19 19 19 13 14 17 17 16 16 17 17 18 19 21 22 27 30 29 27 27 25 24 23 23 22 22 23 23 24 24 25 25 26 26
17 19 20 11 12 11 12 12 13 13 14 16 16 18 21 22 22 22 20 18 19 17 10 14 17 17 16 15 16 16 17 18 20 26 30 31 29 26 24 22 22 22 22 22 23 23 24 25 25 25 26 26 25 25
17 15 9 12 11 11 12 13 13 13 16 15 16 20 16 18 19 22 23 18 10 9 14 18 17 15 15 15 16 17 19 20 25 30 30 25 24 23 24 23 23 21 22 23 23 23 24 25 25 25 25 25 24 23
11 9 10 10 10 12 11 11 11 11 13 14 11 14 18 19 15 9 11 11 10 17 18 16 15 14 14 15 17 19 21 26 29 26 25 24 24 23 23 23 22 23 23 24 23 23 22 23 22 23 23 24 24 24
11 12 14 17 16 15 14 14 16 16 15 16 17 16 12 5 7 8 8 13 19 18 15 13 13 13 15 17 19 21 27 27 24 24 24 25 25 25 24 24 24 24 23 23 23 23 23 23 23 23 22 21 20 21
13 14 14 15 15 15 16 17 17 15 12 11 13 11 7 7 13 16 18 19 17 14 12 12 12 14 16 17 21 23 23 23 23 24 24 26 26 24 24 24 24 24 24 23 23 23 24 25 24 24 25 23 21 21
16 16 16 15 15 15 17 17 16 15 17 17 17 17 18 18 17 17 16 15 13 11 11 11 13 15 17 19 19 21 23 23 22 21 21 21 21 24 24 24 24 23 23 22 22 25 28 29 29 30 30 29 28 26
17 16 15 13 14 15 15 14 15 16 17 17 17 17 16 15 15 14 14 11 11 10 11 13 15 15 13 13 14 17 22 22 22 20 19 19 20 20 21 21 21 22 23 23 23 22 23 25 24 24 24 24 24 23
13 12 12 12 13 13 14 16 17 17 17 16 15 14 14 13 13 13 11 10 10 11 13 14 12 11 12 14 14 13 14 16 17 17 17 17 18 19 20 20 20 21 22 23 24 23 22 21 20 20 18 18 19 20
10 10 12 13 13 14 15 16 17 16 15 14 13 13 13 12 11 10 9 9 11 13 12 10 10 12 12 12 13 13 13 13 14 14 16 17 17 19 19 20 22 24 25 26 26 24 23 22 20 19 17 17 17 17
10 11 12 14 15 15 15 14 14 13 12 12 13 13 12 10 9 8 9 10 12 9 8 9 8 9 9 9 10 11 12 12 13 14 16 18 20 21 22 22 23 24 25 26 27 26 24 23 21 20 19 18 18 17
Wind_Direction
287 282 286 296 298 305 314 325 334 338 341 341 342 342 343 341 338 339 337 328 325 325 340 343 338 330 316 317 324 327 330 334 337 327 304 314 312 329 317 311 311 306 330 298 319 277 263 315 322 321 308 301 324 328
277 274 281 288 292 301 311 324 333 336 338 338 340 340 341 340 338 337 335 328 326 325 331 321 344 330 323 324 329 334 325 321 316 314 311 302 308 308 308 317 321 299 305 312 292 266 296 309 327 322 315 307 315 318
271 272 277 282 290 299 310 323 330 333 334 335 337 338 339 338 337 335 332 327 326 325 343 343 345 333 320 316 320 320 321 319 320 309 302 301 299 286 295 299 302 301 289 265 272 293 275 313 305 297 300 300 309 316
265 266 272 278 285 295 308 321 327 331 331 334 335 337 338 337 338 333 331 329 325 331 327 340 342 341 347 327 332 328 322 317 316 312 307 300 294 294 293 293 290 286 288 294 295 290 290 298 298 296 295 299 303 315
259 262 269 274 281 292 307 319 325 328 328 332 334 337 336 338 336 333 333 330 326 331 318 340 353 347 349 340 337 330 323 317 312 308 302 298 302 306 304 298 279 283 291 298 293 296 299 310 308 301 297 302 306 306
255 261 265 269 278 291 306 316 322 324 327 331 334 336 335 337 334 333 334 335 329 327 327 353 14 7 352 343 334 326 321 317 311 306 308 306 289 280 280 277 288 310 313 311 310 306 303 302 303 301 302 304 307 309
252 257 261 267 276 289 304 314 318 320 327 329 333 334 336 337 333 335 333 331 332 327 339 343 355 353 337 330 333 330 329 328 319 313 304 303 300 306 304 290 300 306 313 313 312 312 310 309 307 304 304 305 306 306
249 254 259 264 274 288 302 310 314 319 324 328 333 334 337 335 332 336 334 337 343 343 346 341 331 332 333 333 335 334 329 329 317 300 295 295 301 304 271 314 316 314 314 316 321 324 325 328 332 334 330 327 324 322
249 254 258 264 274 288 298 306 313 319 322 327 332 333 335 331 330 335 340 336 324 322 316 337 349 340 336 336 333 337 329 321 302 290 284 295 301 274 302 317 323 325 328 334 339 347 352 352 352 350 349 347 345 341
249 254 259 265 276 286 296 304 310 317 321 327 331 332 331 326 324 323 324 322 303 293 293 341 343 334 331 337 338 336 313 305 295 283 292 281 276 282 310 322 328 333 336 339 343 340 340 344 349 356 360 1 1 359
247 254 260 267 275 284 294 301 309 315 323 328 329 325 322 314 309 280 274 325 302 294 284 326 329 329 328 331 331 323 300 290 275 273 282 269 261 268 305 311 316 322 325 329 330 333 338 341 345 347 348 351 354 355
246 253 260 267 274 283 291 300 307 316 324 325 324 321 309 294 271 250 266 299 300 277 303 321 322 326 330 330 329 310 289 267 260 275 268 260 260 262 287 291 297 303 307 312 316 320 324 328 331 333 336 341 342 343
244 253 259 265 273 279 290 298 307 318 322 324 325 305 299 269 264 247 275 285 301 307 316 319 320 321 327 329 303 283 263 253 277 249 248 259 270 269 282 286 290 292 294 296 298 302 309 312 314 319 323 327 328 330
245 253 259 266 272 280 290 299 308 316 319 324 313 281 267 255 256 283 296 300 306 311 315 314 315 309 313 311 278 266 264 277 250 246 252 279 283 277 280 286 289 291 290 293 295 298 301 303 304 307 310 312 314 316
246 253 265 269 272 280 289 300 306 309 317 314 288 262 244 281 295 295 294 299 303 306 312 316 317 311 301 268 252 264 258 247 244 254 286 303 303 303 304 305 303 301 299 298 297 298 298 298 299 301 303 304 305 306
244 260 262 267 273 282 290 298 303 309 315 298 247 260 289 294 293 293 295 298 303 308 313 314 308 280 276 240 235 233 248 253 277 291 302 307 307 306 304 301 299 298 296 294 293 293 292 292 293 294 295 297 299 299
242 257 262 268 276 283 293 299 305 310 297 261 285 291 295 290 293 293 294 298 301 299 302 307 276 256 254 246 242 248 257 279 293 301 304 307 306 305 304 303 301 299 298 297 296 295 294 293 293 293 293 294 295 295
252 257 262 268 275 285 294 298 301 294 275 286 283 288 287 290 294 291 291 295 298 298 300 290 278 258 241 260 269 279 287 297 301 303 306 308 310 309 309 307 306 304 303 302 302 301 300 299 299 299 299 299 299 300
250 255 261 268 279 290 297 299 297 286 286 285 282 279 281 289 291 291 294 297 297 298 299 297 273 269 276 279 281 288 294 297 301 306 310 313 313 312 313 313 313 311 309 308 308 307 305 303 302 301 300 300 300 299
251 258 264 272 279 286 294 281 294 286 276 283 279 278 282 289 293 291 292 293 295 297 297 287 289 290 290 293 296 298 300 304 309 314 317 319 321 321 319 316 314 312 309 308 307 305 304 303 303 302 302 300 300 300
254 260 268 274 278 283 285 282 277 277 277 278 283 277 287 296 293 293 292 293 295 293 292 297 299 299 301 303 304 306 308 310 312 315 316 312 312 313 314 314 312 309 307 305 303 303 303 302 301 300 299 299 299 298
258 266 271 276 282 288 283 278 262 267 265 278 281 285 296 299 299 295 293 295 291 293 300 303 302 307 310 309 309 310 311 312 315 314 316 318 320 320 316 314 310 308 306 304 303 302 301 301 300 299 297 296 295 295
264 272 279 282 287 281 271 257 248 257 264 278 281 288 298 302 299 299 293 290 293 298 303 299 309 315 313 311 311 311 312 314 314 315 319 320 320 320 317 313 312 310 309 308 307 306 304 303 301 300 299 298 297 297
275 281 287 278 261 238 248 247 255 260 275 274 279 291 300 301 303 296 293 296 298 298 298 315 319 314 311 310 311 314 312 313 316 319 322 324 322 321 321 320 320 318 316 314 311 309 307 305 304 303 303 302 301 300
282 283 257 249 244 243 250 256 255 272 277 275 281 294 290 300 296 297 294 296 287 297 319 320 314 310 309 312 314 312 312 316 321 323 323 326 326 325 324 324 322 320 319 316 314 312 310 309 309 309 309 307 307 304
273 250 226 232 233 247 254 250 263 273 275 275 285 297 298 300 292 268 280 289 298 319 319 315 312 311 311 314 314 314 315 319 324 326 327 327 326 327 326 324 322 319 319 317 316 313 312 309 309 309 307 305 307 306
247 238 243 245 256 262 258 263 273 277 277 288 295 296 297 268 263 270 283 297 313 316 315 313 313 313 313 313 313 317 319 325 329 330 328 326 326 327 326 325 324 322 322 320 319 317 314 312 311 308 306 306 308 305
235 247 254 264 264 265 264 274 279 281 278 277 285 290 272 261 283 291 298 306 310 312 313 315 315 313 314 316 317 319 322 329 331 330 328 327 328 329 329 329 330 329 329 328 323 315 312 313 316 316 314 314 312 309
260 269 269 266 263 262 268 270 269 270 281 287 290 290 286 286 289 294 300 305 308 312 315 316 316 317 319 322 324 325 328 331 332 334 335 333 333 333 337 339 338 337 334 332 328 323 321 321 322 322 319 321 320 320
263 265 260 262 263 264 269 265 274 283 288 289 290 288 285 287 292 297 303 304 310 314 317 320 320 323 331 332 330 325 324 334 338 342 345 344 346 347 348 349 348 343 338 334 331 328 322 320 319 317 316 317 317 317
253 251 255 256 261 267 272 278 282 286 289 287 286 283 285 291 292 300 297 303 310 316 320 321 325 338 339 335 339 339 334 340 345 349 354 356 357 359 1 359 355 352 349 347 345 343 342 339 334 332 330 326 322 323
237 244 257 268 274 277 281 285 286 286 285 283 282 283 286 288 291 291 295 303 312 317 322 329 337 339 341 342 342 347 352 357 360 1 2 2 1 2 4 8 6 5 3 1 0 359 357 355 353 350 347 342 337 336
257 270 276 279 283 286 286 281 284 283 280 277 276 280 280 277 275 288 294 306 314 321 330 337 341 341 345 350 351 353 359 5 9 8 5 3 2 360 359 0 3 3 3 1 1 2 2 1 359 357 355 352 349 347